Voltar ao catálogo

ARIANE 2 DEB

AtivoHEO
NORAD 33584·DEBRIS·🇫🇷 France

Lançado Apr 2, 1989 de Guiana Space Centre

Loading…

Próximas Passagens (próximas 24 horas)

TLE

AtualizadoSource: Space-Track

Época: Sep 12, 2026, 10:16 UTC

1 33584U 89027E   26255.42800322  .00000854  00000-0  10768-2 0  9991
2 33584   5.9792 335.8045 6045206 132.0823 298.1349  3.85577569170084

Acompanhe ARIANE 2 DEB em tempo real com AllMySat

Download on the App Store